GIA1 WIHH-UUWW

Flight info

Callsign GIA1
Flight time N/A
Altitude 30000
Route DOLTA G579 PARDI DCT SAMKO/N0502F310 DCT VTK/N0500F320 B338 VMR B469 VPK M751 BKK Y27 IBUBU/N0497F330 W25 NAN R215 LPB B218 SAGAG/K0914S1040 A581 BIDRU/K0918S1010 A581 SGM W144 VEDPO/K0921S1040 W144 IGNAK/K0916S1010 W179 WFX/K0905S1040 W179 OMBON W195 VIDEK/K0897S1010 W195 LAXAL/K0894S1040 W195 IDOPA W197 ANDIM B215 TODOD W112 TUSLI W187 SADAN W186 KAMUD/K0880F360 L728 OGTOL/N0475F360 L728 ARBOL M610 MILSO M161 GUTAN/K0858F360 M161 DENUD T784 LARNO T291 URIDU L158 DIMGI DIMGI3A
Aircraft B77W/H-SDE1E2E3FGHIJ4J5M1P2RWXYZ/LB1D1

Departure

Time 2026-04-12 16:36
Airport Halim Perdanakusuma International Airport (WIHH)

Arrival

Time N/A
Airport Vnukovo International Airport (UUWW)
Time Latitude Longitude Altitude Speed Heading
2026-04-12 15:44 -6.26179 106.89805 100 ft 0 kts 22°
2026-04-12 16:28 -6.26178 106.89805 99 ft 0 kts 22°
2026-04-12 16:29 -6.26172 106.89808 98 ft 1 kts 22°
2026-04-12 16:29 -6.26166 106.89810 102 ft 1 kts 22°
2026-04-12 16:29 -6.26148 106.89820 100 ft 3 kts 34°
2026-04-12 16:29 -6.26137 106.89839 100 ft 3 kts 72°
2026-04-12 16:30 -6.26143 106.89865 101 ft 5 kts 121°
2026-04-12 16:30 -6.26170 106.89883 103 ft 5 kts 155°
2026-04-12 16:30 -6.26200 106.89894 103 ft 5 kts 161°
2026-04-12 16:30 -6.26231 106.89905 103 ft 5 kts 161°
2026-04-12 16:31 -6.26262 106.89916 102 ft 5 kts 157°
2026-04-12 16:31 -6.26279 106.89941 102 ft 5 kts 95°
2026-04-12 16:31 -6.26264 106.89976 101 ft 5 kts 65°
2026-04-12 16:31 -6.26248 106.90010 102 ft 5 kts 65°
2026-04-12 16:32 -6.26232 106.90044 101 ft 5 kts 65°
2026-04-12 16:32 -6.26216 106.90078 102 ft 5 kts 65°
2026-04-12 16:32 -6.26201 106.90112 102 ft 5 kts 65°
2026-04-12 16:32 -6.26185 106.90147 102 ft 5 kts 64°
2026-04-12 16:33 -6.26161 106.90176 102 ft 5 kts 42°
2026-04-12 16:33 -6.26133 106.90200 102 ft 5 kts 41°
2026-04-12 16:33 -6.26104 106.90225 103 ft 5 kts 41°
2026-04-12 16:33 -6.26078 106.90252 102 ft 5 kts 50°
2026-04-12 16:34 -6.26060 106.90285 102 ft 5 kts 76°
2026-04-12 16:34 -6.26078 106.90315 103 ft 5 kts 153°
2026-04-12 16:34 -6.26112 106.90302 102 ft 6 kts 229°
2026-04-12 16:34 -6.26121 106.90282 103 ft 2 kts 245°
2026-04-12 16:35 -6.26122 106.90280 102 ft 0 kts 245°
2026-04-12 16:35 -6.26127 106.90271 104 ft 9 kts 245°
2026-04-12 16:36 -6.26234 106.90039 103 ft 76 kts 245°
2026-04-12 16:36 -6.26574 106.89302 102 ft 155 kts 245°
2026-04-12 16:36 -6.27130 106.88111 203 ft 210 kts 245°
2026-04-12 16:36 -6.27734 106.86766 1013 ft 210 kts 245°
2026-04-12 16:37 -6.28330 106.85428 1957 ft 209 kts 245°
2026-04-12 16:37 -6.28932 106.84120 2567 ft 207 kts 244°
2026-04-12 16:37 -6.29555 106.82768 2849 ft 219 kts 243°
2026-04-12 16:37 -6.30203 106.81333 3119 ft 231 kts 244°
2026-04-12 16:38 -6.30878 106.79823 3473 ft 244 kts 244°
2026-04-12 16:38 -6.31590 106.78224 3518 ft 252 kts 245°
2026-04-12 16:38 -6.32318 106.76591 3599 ft 262 kts 244°
2026-04-12 16:38 -6.33075 106.74888 4108 ft 271 kts 244°
2026-04-12 16:39 -6.33848 106.73146 4706 ft 276 kts 244°
2026-04-12 16:39 -6.34638 106.71368 5388 ft 279 kts 245°
2026-04-12 16:39 -6.35391 106.69561 6071 ft 281 kts 247°
2026-04-12 16:39 -6.36097 106.67714 6721 ft 285 kts 248°
2026-04-12 16:40 -6.36800 106.65844 7382 ft 287 kts 248°
2026-04-12 16:40 -6.37516 106.63960 8006 ft 290 kts 248°
2026-04-12 16:40 -6.38249 106.62058 8603 ft 293 kts 248°
2026-04-12 16:40 -6.38994 106.60139 9198 ft 296 kts 248°
2026-04-12 16:41 -6.39598 106.58171 9690 ft 297 kts 266°
2026-04-12 16:41 -6.39260 106.56126 10101 ft 303 kts 297°
2026-04-12 16:41 -6.37931 106.54448 10340 ft 317 kts 318°
2026-04-12 16:41 -6.36172 106.53026 10472 ft 333 kts 324°
2026-04-12 16:42 -6.34114 106.51816 10620 ft 353 kts 332°
2026-04-12 16:42 -6.31848 106.50730 10906 ft 366 kts 334°
2026-04-12 16:42 -6.29500 106.49663 11406 ft 373 kts 334°
2026-04-12 16:43 -6.22401 106.46360 13288 ft 380 kts 333°
2026-04-12 16:43 -6.19998 106.45204 13840 ft 385 kts 332°
2026-04-12 16:43 -6.17575 106.44028 14382 ft 389 kts 333°
2026-04-12 16:44 -6.15126 106.42832 14919 ft 393 kts 332°
2026-04-12 16:44 -6.12627 106.41606 15465 ft 397 kts 333°
2026-04-12 16:44 -6.10168 106.40397 15988 ft 400 kts 333°
2026-04-12 16:44 -6.07624 106.39146 16492 ft 404 kts 333°
2026-04-12 16:45 -6.05087 106.37899 16989 ft 408 kts 333°
2026-04-12 16:45 -6.02568 106.36659 17484 ft 411 kts 333°
2026-04-12 16:45 -5.99987 106.35390 17982 ft 415 kts 333°
2026-04-12 16:45 -5.97384 106.34110 18472 ft 418 kts 333°
2026-04-12 16:46 -5.94760 106.32820 18942 ft 421 kts 333°
2026-04-12 16:46 -5.92120 106.31522 19441 ft 424 kts 333°
2026-04-12 16:46 -5.89465 106.30217 19919 ft 426 kts 334°
2026-04-12 16:46 -5.86800 106.28907 20366 ft 429 kts 334°
2026-04-12 16:47 -5.84110 106.27584 20809 ft 431 kts 334°
2026-04-12 16:47 -5.81403 106.26254 21223 ft 435 kts 334°
2026-04-12 16:47 -5.78673 106.24914 21608 ft 439 kts 334°
2026-04-12 16:47 -5.75922 106.23564 21966 ft 442 kts 334°
2026-04-12 16:48 -5.73146 106.22202 22351 ft 445 kts 334°
2026-04-12 16:48 -5.70353 106.20830 22767 ft 447 kts 334°
2026-04-12 16:48 -5.67562 106.19460 23200 ft 448 kts 334°
2026-04-12 16:48 -5.64765 106.18087 23630 ft 448 kts 334°
2026-04-12 16:49 -5.61959 106.16708 23987 ft 450 kts 335°
2026-04-12 16:49 -5.59136 106.15323 24289 ft 453 kts 335°
2026-04-12 16:49 -5.56285 106.13924 24595 ft 457 kts 335°
2026-04-12 16:49 -5.53430 106.12523 24894 ft 459 kts 335°
2026-04-12 16:50 -5.50550 106.11109 25188 ft 462 kts 335°
2026-04-12 16:50 -5.47653 106.09686 25468 ft 465 kts 335°
2026-04-12 16:50 -5.44739 106.08256 25754 ft 467 kts 335°
2026-04-12 16:50 -5.41811 106.06820 26027 ft 470 kts 335°
2026-04-12 16:51 -5.38864 106.05375 26301 ft 473 kts 335°
2026-04-12 16:51 -5.35899 106.03920 26581 ft 475 kts 335°
2026-04-12 16:51 -5.32921 106.02460 26841 ft 478 kts 335°
2026-04-12 16:51 -5.29929 106.00993 27085 ft 480 kts 335°
2026-04-12 16:52 -5.26921 105.99518 27327 ft 483 kts 335°
2026-04-12 16:52 -5.23904 105.98038 27588 ft 485 kts 335°
2026-04-12 16:52 -5.20870 105.96550 27849 ft 486 kts 335°
2026-04-12 16:52 -5.17824 105.95056 28094 ft 488 kts 335°
2026-04-12 16:53 -5.14757 105.93552 28296 ft 491 kts 335°
2026-04-12 16:53 -5.11700 105.92017 28505 ft 494 kts 332°
2026-04-12 16:53 -5.08692 105.90339 28737 ft 496 kts 331°
2026-04-12 16:53 -5.05681 105.88619 28963 ft 498 kts 331°
2026-04-12 16:54 -5.02672 105.86886 29179 ft 499 kts 331°
2026-04-12 16:54 -4.99659 105.85148 29375 ft 502 kts 331°
2026-04-12 16:54 -4.96622 105.83403 29563 ft 504 kts 331°
2026-04-12 16:54 -4.93571 105.81658 29780 ft 506 kts 331°
2026-04-12 16:55 -4.90502 105.79909 29861 ft 509 kts 331°
2026-04-12 16:55 -4.84325 105.76389 29936 ft 513 kts 331°
2026-04-12 16:56 -4.78075 105.72833 29947 ft 519 kts 331°
2026-04-12 16:56 -4.71784 105.69253 29939 ft 520 kts 331°
2026-04-12 16:57 -4.65486 105.65668 29937 ft 520 kts 331°
2026-04-12 16:57 -4.60260 105.62692 29933 ft 520 kts 331°
2026-04-12 16:58 -4.53971 105.59116 29935 ft 519 kts 331°
2026-04-12 16:58 -4.47689 105.55545 29934 ft 519 kts 331°
2026-04-12 16:59 -4.41416 105.51979 29934 ft 518 kts 331°
2026-04-12 16:59 -4.35150 105.48415 29936 ft 518 kts 331°
2026-04-12 17:00 -4.28885 105.44853 29937 ft 518 kts 331°
2026-04-12 17:00 -4.22626 105.41296 29936 ft 518 kts 331°
2026-04-12 17:01 -4.16359 105.37735 29935 ft 518 kts 331°
2026-04-12 17:01 -4.10089 105.34174 29936 ft 518 kts 331°
2026-04-12 17:02 -4.03818 105.30610 29936 ft 518 kts 331°
2026-04-12 17:02 -3.97544 105.27047 29936 ft 518 kts 331°
2026-04-12 17:03 -3.91309 105.23507 29935 ft 518 kts 331°
2026-04-12 17:03 -3.85026 105.19962 29935 ft 518 kts 331°
2026-04-12 17:04 -3.78736 105.16426 29935 ft 518 kts 331°
2026-04-12 17:04 -3.72457 105.12898 29935 ft 517 kts 331°
2026-04-12 17:05 -3.66188 105.09370 29934 ft 517 kts 331°
2026-04-12 17:05 -3.59910 105.05836 29936 ft 517 kts 331°
2026-04-12 17:06 -3.53649 105.02311 29935 ft 517 kts 331°
2026-04-12 17:06 -3.47378 104.98784 29935 ft 516 kts 331°
2026-04-12 17:07 -3.41126 104.95267 29935 ft 516 kts 331°
2026-04-12 17:07 -3.34873 104.91748 29935 ft 515 kts 331°
2026-04-12 17:08 -3.28617 104.88232 29934 ft 515 kts 331°
2026-04-12 17:08 -3.22370 104.84718 29936 ft 515 kts 331°
2026-04-12 17:09 -3.16118 104.81204 29935 ft 515 kts 331°
2026-04-12 17:09 -3.09867 104.77688 29936 ft 515 kts 331°
2026-04-12 17:10 -3.03613 104.74172 29935 ft 515 kts 331°
2026-04-12 17:10 -2.97360 104.70658 29934 ft 515 kts 331°
2026-04-12 17:11 -2.91123 104.67212 29934 ft 515 kts 335°
2026-04-12 17:11 -2.84399 104.64679 29942 ft 513 kts 345°
2026-04-12 17:12 -2.77412 104.63250 29938 ft 512 kts 351°
2026-04-12 17:12 -2.70443 104.61996 29934 ft 513 kts 351°
2026-04-12 17:13 -2.63418 104.60701 29937 ft 513 kts 351°
2026-04-12 17:13 -2.56401 104.59379 29933 ft 513 kts 350°
2026-04-12 17:14 -2.49398 104.58052 29938 ft 513 kts 350°
2026-04-12 17:14 -2.42385 104.56724 29935 ft 513 kts 350°
2026-04-12 17:15 -2.35366 104.55397 29936 ft 512 kts 350°
2026-04-12 17:15 -2.28366 104.54074 29935 ft 512 kts 350°
2026-04-12 17:16 -2.21358 104.52752 29935 ft 512 kts 350°
2026-04-12 17:16 -2.14351 104.51428 29936 ft 512 kts 350°
2026-04-12 17:17 -2.07344 104.50105 29935 ft 512 kts 350°
2026-04-12 17:17 -2.00347 104.48785 29934 ft 512 kts 351°
2026-04-12 17:18 -1.93348 104.47461 29936 ft 512 kts 350°
2026-04-12 17:18 -1.86352 104.46139 29935 ft 511 kts 350°
2026-04-12 17:19 -1.79357 104.44819 29935 ft 511 kts 350°
2026-04-12 17:19 -1.72409 104.43508 29935 ft 511 kts 350°
2026-04-12 17:20 -1.65415 104.42188 29935 ft 511 kts 350°
2026-04-12 17:20 -1.58419 104.40867 29935 ft 512 kts 350°
2026-04-12 17:21 -1.51416 104.39545 29937 ft 512 kts 350°
2026-04-12 17:21 -1.44420 104.38226 29933 ft 512 kts 350°
2026-04-12 17:22 -1.37414 104.36903 29937 ft 513 kts 350°
2026-04-12 17:22 -1.30402 104.35581 29936 ft 513 kts 350°
2026-04-12 17:23 -1.23388 104.34257 29935 ft 513 kts 350°
2026-04-12 17:23 -1.16376 104.32932 29934 ft 513 kts 350°
2026-04-12 17:24 -1.09364 104.31609 29936 ft 513 kts 350°
2026-04-12 17:24 -1.02452 104.30305 29936 ft 513 kts 350°
2026-04-12 17:25 -0.95442 104.28983 29935 ft 512 kts 350°
2026-04-12 17:25 -0.88435 104.27661 29935 ft 512 kts 350°
2026-04-12 17:26 -0.81431 104.26340 29936 ft 512 kts 350°
2026-04-12 17:26 -0.74431 104.25019 29935 ft 512 kts 350°
2026-04-12 17:27 -0.67435 104.23699 29936 ft 511 kts 350°
2026-04-12 17:27 -0.60445 104.22379 29935 ft 511 kts 350°
2026-04-12 17:28 -0.54631 104.21276 29936 ft 511 kts 350°
2026-04-12 17:28 -0.46336 104.19610 29935 ft 511 kts 349°
2026-04-12 17:29 -0.39371 104.18185 29936 ft 511 kts 349°
2026-04-12 17:29 -0.32415 104.16771 29935 ft 510 kts 349°
2026-04-12 17:30 -0.25453 104.15367 29936 ft 510 kts 349°
2026-04-12 17:30 -0.18539 104.13972 29934 ft 510 kts 349°
2026-04-12 17:31 -0.11591 104.12571 29936 ft 510 kts 349°
2026-04-12 17:31 -0.04633 104.11167 29935 ft 510 kts 349°
2026-04-12 17:32 0.02317 104.09763 29936 ft 510 kts 349°
2026-04-12 17:32 0.09268 104.08360 29935 ft 509 kts 349°
2026-04-12 17:33 0.16219 104.06958 29935 ft 510 kts 349°
2026-04-12 17:33 0.23172 104.05555 29934 ft 510 kts 349°
2026-04-12 17:34 0.30126 104.04152 29936 ft 510 kts 349°
2026-04-12 17:34 0.37083 104.02748 29935 ft 510 kts 349°
2026-04-12 17:34 0.40573 104.02043 30042 ft 512 kts 349°
2026-04-12 17:35 0.44066 104.01338 30307 ft 511 kts 349°
2026-04-12 17:35 0.47549 104.00635 30595 ft 510 kts 349°
2026-04-12 17:35 0.51023 103.99933 30885 ft 509 kts 349°
2026-04-12 17:35 0.54491 103.99233 31162 ft 508 kts 349°
2026-04-12 17:36 0.57955 103.98534 31399 ft 508 kts 349°
2026-04-12 17:36 0.61420 103.97835 31611 ft 508 kts 349°
2026-04-12 17:36 0.64888 103.97134 31806 ft 508 kts 349°
2026-04-12 17:37 0.71840 103.95731 31933 ft 510 kts 349°
2026-04-12 17:37 0.78795 103.94330 31936 ft 509 kts 349°
2026-04-12 17:38 0.85723 103.92928 31943 ft 508 kts 349°
2026-04-12 17:38 0.92656 103.91527 31938 ft 509 kts 349°
2026-04-12 17:39 0.99599 103.90126 31938 ft 508 kts 349°
2026-04-12 17:39 1.06561 103.89013 31935 ft 505 kts
2026-04-12 17:40 1.13464 103.89987 31942 ft 502 kts 19°
2026-04-12 17:40 1.19865 103.92720 31931 ft 501 kts 26°
2026-04-12 17:41 1.26251 103.95596 31931 ft 504 kts 25°
2026-04-12 17:41 1.32651 103.98378 31932 ft 506 kts 24°
2026-04-12 17:42 1.39209 104.00934 31922 ft 507 kts 14°
2026-04-12 17:42 1.46224 104.01598 31928 ft 509 kts 356°
2026-04-12 17:43 1.55617 104.00144 31915 ft 512 kts 351°
2026-04-12 17:43 1.62612 103.99022 31912 ft 512 kts 352°
2026-04-12 17:44 1.73177 103.97404 31915 ft 512 kts 352°
2026-04-12 17:45 1.80208 103.96329 31915 ft 511 kts 351°
2026-04-12 17:45 1.87277 103.95215 31917 ft 511 kts 351°
2026-04-12 17:46 1.94239 103.94126 31913 ft 510 kts 352°
2026-04-12 17:46 2.01250 103.93033 31914 ft 510 kts 352°
2026-04-12 17:47 2.08253 103.91945 31918 ft 509 kts 351°
2026-04-12 17:47 2.15251 103.90856 31933 ft 508 kts 351°
2026-04-12 17:48 2.22245 103.89772 31919 ft 508 kts 352°
2026-04-12 17:48 2.29229 103.88666 31948 ft 508 kts 351°
2026-04-12 17:49 2.36205 103.87525 31920 ft 507 kts 348°
2026-04-12 17:49 2.42940 103.85463 31940 ft 506 kts 336°
2026-04-12 17:50 2.49340 103.82510 31948 ft 508 kts 334°
2026-04-12 17:50 2.55740 103.79455 31948 ft 512 kts 335°
2026-04-12 17:51 2.62223 103.76452 31933 ft 515 kts 335°
2026-04-12 17:51 2.68748 103.73486 31929 ft 515 kts 335°
2026-04-12 17:52 2.75266 103.70517 31937 ft 514 kts 336°
2026-04-12 17:52 2.81781 103.67605 31928 ft 512 kts 336°
2026-04-12 17:53 2.88226 103.64728 31934 ft 510 kts 336°
2026-04-12 17:53 2.94747 103.61816 31921 ft 509 kts 336°
2026-04-12 17:54 3.01174 103.58959 31930 ft 508 kts 336°
2026-04-12 17:54 3.07639 103.56083 31918 ft 509 kts 336°
2026-04-12 17:55 3.14109 103.53202 31919 ft 509 kts 336°
2026-04-12 17:55 3.20582 103.50305 31921 ft 510 kts 336°
2026-04-12 17:56 3.27050 103.47389 31913 ft 511 kts 336°
2026-04-12 17:56 3.33532 103.44471 31905 ft 511 kts 336°
2026-04-12 17:57 3.40022 103.41557 31897 ft 511 kts 337°
2026-04-12 17:57 3.46616 103.38880 31893 ft 511 kts 339°
2026-04-12 17:58 3.53252 103.36322 31891 ft 510 kts 339°
2026-04-12 17:58 3.59864 103.33736 31888 ft 510 kts 339°
2026-04-12 17:59 3.66456 103.31123 31884 ft 509 kts 339°
2026-04-12 17:59 3.73038 103.28502 31891 ft 509 kts 339°
2026-04-12 18:00 3.79616 103.25888 31890 ft 509 kts 339°
2026-04-12 18:00 3.86155 103.23288 31889 ft 509 kts 339°
2026-04-12 18:01 3.92747 103.20666 31889 ft 510 kts 339°
2026-04-12 18:01 3.99348 103.18041 31888 ft 511 kts 339°
2026-04-12 18:02 4.05947 103.15415 31890 ft 511 kts 339°
2026-04-12 18:02 4.12563 103.12781 31890 ft 511 kts 339°
2026-04-12 18:03 4.19172 103.10153 31888 ft 511 kts 339°
2026-04-12 18:03 4.25779 103.07525 31893 ft 511 kts 339°
2026-04-12 18:04 4.32385 103.04896 31886 ft 511 kts 339°
2026-04-12 18:04 4.38984 103.02270 31889 ft 510 kts 339°
2026-04-12 18:05 4.45571 102.99646 31886 ft 510 kts 339°
2026-04-12 18:05 4.52159 102.97019 31890 ft 509 kts 339°
2026-04-12 18:06 4.58743 102.94396 31889 ft 509 kts 339°
2026-04-12 18:06 4.65324 102.91775 31885 ft 509 kts 339°
2026-04-12 18:07 4.71901 102.89154 31891 ft 508 kts 339°
2026-04-12 18:07 4.78474 102.86534 31886 ft 508 kts 339°
2026-04-12 18:08 4.85043 102.83914 31889 ft 508 kts 339°
2026-04-12 18:08 4.91620 102.81296 31890 ft 508 kts 339°
2026-04-12 18:09 4.98156 102.78700 31892 ft 509 kts 339°
2026-04-12 18:09 5.04737 102.76083 31890 ft 508 kts 339°
2026-04-12 18:10 5.11309 102.73470 31890 ft 508 kts 339°
2026-04-12 18:10 5.17890 102.70852 31889 ft 508 kts 339°
2026-04-12 18:11 5.24457 102.68224 31888 ft 508 kts 338°
2026-04-12 18:11 5.31005 102.65572 31891 ft 508 kts 338°
2026-04-12 18:12 5.37561 102.62925 31890 ft 508 kts 339°
2026-04-12 18:12 5.44129 102.60309 31888 ft 508 kts 339°
2026-04-12 18:13 5.50697 102.57691 31885 ft 508 kts 339°
2026-04-12 18:13 5.57259 102.55069 31889 ft 507 kts 339°
2026-04-12 18:14 5.63817 102.52448 31890 ft 507 kts 339°
2026-04-12 18:14 5.70377 102.49824 31891 ft 507 kts 339°
2026-04-12 18:15 5.76938 102.47200 31889 ft 508 kts 339°
2026-04-12 18:15 5.83495 102.44576 31887 ft 508 kts 339°
2026-04-12 18:16 5.90059 102.41948 31881 ft 508 kts 339°
2026-04-12 18:16 5.96620 102.39321 31880 ft 507 kts 339°
2026-04-12 18:17 6.03178 102.36698 31880 ft 507 kts 339°
2026-04-12 18:17 6.09728 102.34072 31877 ft 507 kts 339°
2026-04-12 18:18 6.16278 102.31457 31887 ft 506 kts 340°
2026-04-12 18:18 6.22946 102.29354 31891 ft 505 kts 345°
2026-04-12 18:19 6.29703 102.27403 31891 ft 505 kts 344°
2026-04-12 18:19 6.36440 102.25370 31882 ft 505 kts 343°
2026-04-12 18:20 6.43176 102.23328 31878 ft 505 kts 343°
2026-04-12 18:20 6.49911 102.21295 31873 ft 505 kts 343°
2026-04-12 18:21 6.56639 102.19265 31870 ft 505 kts 343°
2026-04-12 18:21 6.63372 102.17232 31859 ft 505 kts 343°
2026-04-12 18:22 6.70100 102.15198 31863 ft 505 kts 343°
2026-04-12 18:22 6.76822 102.13168 31854 ft 504 kts 343°
2026-04-12 18:23 6.83532 102.11140 31855 ft 503 kts 343°
2026-04-12 18:23 6.90227 102.09117 31853 ft 502 kts 343°
2026-04-12 18:24 6.96910 102.07096 31852 ft 501 kts 343°
2026-04-12 18:24 7.03573 102.05080 31851 ft 500 kts 343°
2026-04-12 18:25 7.10231 102.03066 31856 ft 499 kts 343°
2026-04-12 18:25 7.16878 102.01054 31850 ft 498 kts 343°
2026-04-12 18:26 7.23510 101.99046 31850 ft 497 kts 343°
2026-04-12 18:26 7.30131 101.97041 31855 ft 496 kts 343°
2026-04-12 18:27 7.36745 101.95038 31850 ft 496 kts 343°
2026-04-12 18:27 7.43351 101.93035 31847 ft 495 kts 343°
2026-04-12 18:28 7.49906 101.91048 31853 ft 495 kts 343°
2026-04-12 18:28 7.56499 101.89049 31857 ft 495 kts 343°
2026-04-12 18:29 7.63088 101.87052 31852 ft 494 kts 343°
2026-04-12 18:29 7.69673 101.85055 31848 ft 494 kts 343°
2026-04-12 18:30 7.76254 101.83055 31862 ft 494 kts 343°
2026-04-12 18:30 7.82827 101.81061 31863 ft 494 kts 343°
2026-04-12 18:31 7.89401 101.79065 31861 ft 493 kts 343°
2026-04-12 18:31 7.94860 101.77408 31866 ft 492 kts 343°
2026-04-12 18:32 8.01414 101.75413 31861 ft 492 kts 343°
2026-04-12 18:32 8.07986 101.73453 31866 ft 493 kts 344°
2026-04-12 18:33 8.14590 101.71588 31857 ft 493 kts 345°
2026-04-12 18:33 8.21204 101.69729 31866 ft 494 kts 345°
2026-04-12 18:34 8.27824 101.67852 31859 ft 494 kts 344°
2026-04-12 18:34 8.34449 101.65964 31863 ft 495 kts 344°
2026-04-12 18:35 8.41078 101.64073 31855 ft 495 kts 344°
2026-04-12 18:35 8.43269 101.63448 31857 ft 495 kts 344°